BTK6151 WAUU-WASS

Flight info

Callsign BTK6151
Flight time 1h 4m
Altitude 34000
Route UU404 DCT UGVIK DCT IPGAS DCT RUMIT/N0462F330 DCT D230Y DCT ADUAP
Aircraft A320/M-SDE3FGHIRWY/LB1

Departure

Time 2026-05-06 04:58
Airport Rendani Airport (WAUU)

Arrival

Time 2026-05-06 06:03
Airport Domine Eduard Osok Airport (WASS)
Time Latitude Longitude Altitude Speed Heading
2026-05-06 04:38 -0.88888 134.05015 51 ft 0 kts 88°
2026-05-06 04:46 -0.88888 134.05014 50 ft 1 kts 88°
2026-05-06 04:46 -0.88886 134.04995 45 ft 3 kts 135°
2026-05-06 04:46 -0.88868 134.04987 48 ft 2 kts 179°
2026-05-06 04:46 -0.88867 134.04987 48 ft 0 kts 179°
2026-05-06 04:53 -0.88892 134.04987 48 ft 6 kts 179°
2026-05-06 04:53 -0.88955 134.04988 48 ft 12 kts 179°
2026-05-06 04:53 -0.89038 134.04981 45 ft 10 kts 219°
2026-05-06 04:54 -0.89045 134.04912 48 ft 11 kts 265°
2026-05-06 04:54 -0.89118 134.04881 49 ft 14 kts 177°
2026-05-06 04:54 -0.89237 134.04886 47 ft 20 kts 178°
2026-05-06 04:54 -0.89398 134.04890 45 ft 26 kts 178°
2026-05-06 04:55 -0.89594 134.04897 42 ft 31 kts 178°
2026-05-06 04:55 -0.89804 134.04903 39 ft 30 kts 178°
2026-05-06 04:55 -0.89974 134.04908 38 ft 18 kts 177°
2026-05-06 04:55 -0.90080 134.04931 38 ft 8 kts 217°
2026-05-06 04:56 -0.90071 134.04914 39 ft 4 kts 332°
2026-05-06 04:56 -0.90041 134.04910 37 ft 0 kts 360°
2026-05-06 04:57 -0.89897 134.04906 38 ft 56 kts 357°
2026-05-06 04:57 -0.89258 134.04886 47 ft 125 kts 358°
2026-05-06 04:58 -0.88211 134.04852 179 ft 164 kts
2026-05-06 04:58 -0.87091 134.04829 948 ft 162 kts
2026-05-06 04:58 -0.85958 134.04808 1750 ft 163 kts
2026-05-06 04:58 -0.84915 134.05242 2183 ft 175 kts 48°
2026-05-06 04:59 -0.84387 134.06390 2507 ft 197 kts 87°
2026-05-06 04:59 -0.84811 134.07742 2828 ft 221 kts 130°
2026-05-06 04:59 -0.86182 134.08561 3198 ft 247 kts 169°
2026-05-06 04:59 -0.87964 134.08447 3692 ft 267 kts 194°
2026-05-06 05:00 -0.89740 134.07826 4496 ft 273 kts 202°
2026-05-06 05:00 -0.91494 134.07061 5370 ft 276 kts 204°
2026-05-06 05:00 -0.93264 134.06281 6234 ft 279 kts 203°
2026-05-06 05:00 -0.95069 134.05527 7039 ft 283 kts 202°
2026-05-06 05:01 -0.96786 134.04554 7809 ft 286 kts 218°
2026-05-06 05:01 -0.98375 134.03340 8610 ft 290 kts 217°
2026-05-06 05:01 -1.00002 134.02139 9427 ft 293 kts 216°
2026-05-06 05:01 -1.01661 134.00934 10161 ft 297 kts 216°
2026-05-06 05:02 -1.03397 133.99681 10434 ft 319 kts 217°
2026-05-06 05:02 -1.05263 133.98335 10626 ft 342 kts 216°
2026-05-06 05:02 -1.07223 133.96921 11095 ft 352 kts 216°
2026-05-06 05:02 -1.09228 133.95472 11712 ft 358 kts 216°
2026-05-06 05:03 -1.11255 133.94004 12351 ft 362 kts 217°
2026-05-06 05:03 -1.13310 133.92514 12980 ft 367 kts 216°
2026-05-06 05:03 -1.15388 133.91007 13653 ft 371 kts 217°
2026-05-06 05:03 -1.17465 133.89500 14202 ft 376 kts 216°
2026-05-06 05:04 -1.19621 133.87937 14777 ft 380 kts 216°
2026-05-06 05:04 -1.21770 133.86380 15320 ft 384 kts 216°
2026-05-06 05:04 -1.23943 133.84807 15878 ft 387 kts 216°
2026-05-06 05:04 -1.26102 133.83243 16368 ft 391 kts 216°
2026-05-06 05:05 -1.28316 133.81637 16933 ft 394 kts 216°
2026-05-06 05:05 -1.30536 133.80025 17471 ft 397 kts 216°
2026-05-06 05:05 -1.32780 133.78394 17979 ft 401 kts 216°
2026-05-06 05:05 -1.35078 133.76726 18563 ft 404 kts 216°
2026-05-06 05:06 -1.37327 133.75095 18987 ft 407 kts 216°
2026-05-06 05:06 -1.39630 133.73425 19395 ft 411 kts 216°
2026-05-06 05:06 -1.41953 133.71743 19801 ft 414 kts 216°
2026-05-06 05:06 -1.44299 133.70048 20219 ft 416 kts 216°
2026-05-06 05:07 -1.46652 133.68346 20614 ft 420 kts 216°
2026-05-06 05:07 -1.49024 133.66627 21022 ft 422 kts 216°
2026-05-06 05:07 -1.51407 133.64898 21445 ft 424 kts 216°
2026-05-06 05:07 -1.53805 133.63153 21823 ft 428 kts 216°
2026-05-06 05:08 -1.56216 133.61399 22201 ft 430 kts 216°
2026-05-06 05:08 -1.58498 133.59464 22591 ft 432 kts 226°
2026-05-06 05:08 -1.60410 133.57136 22946 ft 435 kts 237°
2026-05-06 05:08 -1.61864 133.54494 23303 ft 436 kts 247°
2026-05-06 05:09 -1.62881 133.51637 23650 ft 438 kts 252°
2026-05-06 05:09 -1.63834 133.48731 23955 ft 440 kts 252°
2026-05-06 05:09 -1.64795 133.45824 24269 ft 442 kts 252°
2026-05-06 05:09 -1.65763 133.42901 24594 ft 444 kts 252°
2026-05-06 05:10 -1.66732 133.39967 24879 ft 446 kts 252°
2026-05-06 05:10 -1.67710 133.37008 25180 ft 448 kts 252°
2026-05-06 05:10 -1.68689 133.34048 25483 ft 450 kts 252°
2026-05-06 05:10 -1.69675 133.31067 25773 ft 452 kts 252°
2026-05-06 05:11 -1.70664 133.28074 26048 ft 455 kts 252°
2026-05-06 05:11 -1.71655 133.25066 26350 ft 456 kts 252°
2026-05-06 05:11 -1.72650 133.22043 26627 ft 459 kts 252°
2026-05-06 05:11 -1.73648 133.19010 26906 ft 461 kts 252°
2026-05-06 05:12 -1.74652 133.15958 27195 ft 462 kts 252°
2026-05-06 05:12 -1.75662 133.12898 27474 ft 465 kts 252°
2026-05-06 05:12 -1.76677 133.09831 27742 ft 467 kts 252°
2026-05-06 05:12 -1.77698 133.06740 28027 ft 469 kts 252°
2026-05-06 05:13 -1.78720 133.03645 28290 ft 471 kts 252°
2026-05-06 05:13 -1.79746 133.00527 28534 ft 473 kts 252°
2026-05-06 05:13 -1.80775 132.97396 28776 ft 475 kts 252°
2026-05-06 05:13 -1.81808 132.94263 29025 ft 477 kts 252°
2026-05-06 05:14 -1.82851 132.91107 29259 ft 479 kts 252°
2026-05-06 05:14 -1.83900 132.87943 29498 ft 480 kts 252°
2026-05-06 05:14 -1.84954 132.84764 29737 ft 482 kts 252°
2026-05-06 05:14 -1.86001 132.81585 29960 ft 484 kts 252°
2026-05-06 05:15 -1.87052 132.78384 30160 ft 485 kts 252°
2026-05-06 05:15 -1.88111 132.75165 30356 ft 487 kts 252°
2026-05-06 05:15 -1.89170 132.71945 30610 ft 487 kts 252°
2026-05-06 05:15 -1.90226 132.68741 30904 ft 486 kts 252°
2026-05-06 05:16 -1.91280 132.65536 31188 ft 485 kts 252°
2026-05-06 05:16 -1.92334 132.62339 31482 ft 484 kts 252°
2026-05-06 05:16 -1.93389 132.59139 31780 ft 484 kts 252°
2026-05-06 05:16 -1.94441 132.55952 32068 ft 483 kts 252°
2026-05-06 05:17 -1.95493 132.52762 32373 ft 483 kts 252°
2026-05-06 05:17 -1.96549 132.49570 32667 ft 482 kts 252°
2026-05-06 05:17 -1.97600 132.46393 32984 ft 482 kts 252°
2026-05-06 05:17 -1.98298 132.44287 33177 ft 481 kts 252°
2026-05-06 05:18 -1.99348 132.41112 33477 ft 481 kts 252°
2026-05-06 05:18 -2.00744 132.36868 33793 ft 480 kts 251°
2026-05-06 05:18 -2.01431 132.34772 33824 ft 478 kts 251°
2026-05-06 05:19 -2.03495 132.28479 33830 ft 475 kts 251°
2026-05-06 05:19 -2.05563 132.22200 33827 ft 475 kts 251°
2026-05-06 05:20 -2.07627 132.15933 33830 ft 474 kts 251°
2026-05-06 05:20 -2.09683 132.09690 33830 ft 473 kts 251°
2026-05-06 05:21 -2.11736 132.03437 33830 ft 473 kts 251°
2026-05-06 05:21 -2.13468 131.97102 33830 ft 473 kts 263°
2026-05-06 05:22 -2.13303 131.90573 33830 ft 471 kts 281°
2026-05-06 05:22 -2.12108 131.84137 33834 ft 471 kts 281°
2026-05-06 05:23 -2.10927 131.77691 33832 ft 471 kts 281°
2026-05-06 05:23 -2.09160 131.68024 33838 ft 471 kts 281°
2026-05-06 05:24 -2.07984 131.61633 33839 ft 471 kts 281°
2026-05-06 05:24 -2.06792 131.55156 33840 ft 471 kts 281°
2026-05-06 05:25 -2.05612 131.48721 33842 ft 471 kts 281°
2026-05-06 05:25 -2.04429 131.42283 33842 ft 471 kts 281°
2026-05-06 05:26 -2.03253 131.35890 33836 ft 471 kts 281°
2026-05-06 05:26 -2.02066 131.29452 33839 ft 470 kts 281°
2026-05-06 05:27 -2.00885 131.23022 33838 ft 470 kts 281°
2026-05-06 05:27 -1.99705 131.16591 33841 ft 470 kts 281°
2026-05-06 05:28 -1.98520 131.10164 33846 ft 470 kts 281°
2026-05-06 05:28 -1.97340 131.03749 33849 ft 469 kts 281°
2026-05-06 05:29 -1.96160 130.97347 33845 ft 468 kts 281°
2026-05-06 05:29 -1.94981 130.90950 33845 ft 467 kts 281°
2026-05-06 05:30 -1.93803 130.84570 33845 ft 466 kts 281°
2026-05-06 05:30 -1.92628 130.78205 33846 ft 466 kts 281°
2026-05-06 05:31 -1.91454 130.71834 33845 ft 465 kts 281°
2026-05-06 05:31 -1.90279 130.65480 33842 ft 465 kts 281°
2026-05-06 05:32 -1.89108 130.59124 33839 ft 465 kts 281°
2026-05-06 05:32 -1.87940 130.52780 33835 ft 464 kts 281°
2026-05-06 05:33 -1.86769 130.46426 33830 ft 464 kts 281°
2026-05-06 05:33 -1.85487 130.40110 33818 ft 464 kts 289°
2026-05-06 05:34 -1.84126 130.37201 33821 ft 461 kts 304°
2026-05-06 05:34 -1.82052 130.34784 33815 ft 458 kts 320°
2026-05-06 05:34 -1.79435 130.32991 33809 ft 456 kts 335°
2026-05-06 05:34 -1.76462 130.31954 33806 ft 454 kts 350°
2026-05-06 05:35 -1.73322 130.31722 33797 ft 452 kts
2026-05-06 05:35 -1.70257 130.32335 33796 ft 450 kts 20°
2026-05-06 05:35 -1.67441 130.33683 33796 ft 450 kts 34°
2026-05-06 05:35 -1.65020 130.35659 33796 ft 450 kts 47°
2026-05-06 05:36 -1.60999 130.40497 33506 ft 456 kts 51°
2026-05-06 05:36 -1.59003 130.42973 33253 ft 457 kts 51°
2026-05-06 05:36 -1.57014 130.45447 33004 ft 458 kts 51°
2026-05-06 05:37 -1.55017 130.47931 32753 ft 458 kts 51°
2026-05-06 05:37 -1.53043 130.50383 32496 ft 458 kts 51°
2026-05-06 05:37 -1.51039 130.52871 31540 ft 463 kts 51°
2026-05-06 05:37 -1.48998 130.55403 30410 ft 472 kts 51°
2026-05-06 05:38 -1.46933 130.57963 29561 ft 472 kts 51°
2026-05-06 05:38 -1.44849 130.60546 28764 ft 469 kts 51°
2026-05-06 05:38 -1.42842 130.63032 28004 ft 465 kts 51°
2026-05-06 05:38 -1.40818 130.65540 27268 ft 461 kts 51°
2026-05-06 05:39 -1.38817 130.68023 26524 ft 457 kts 51°
2026-05-06 05:39 -1.36826 130.70491 25791 ft 455 kts 51°
2026-05-06 05:39 -1.34852 130.72937 25210 ft 449 kts 51°
2026-05-06 05:39 -1.32887 130.75370 24441 ft 448 kts 51°
2026-05-06 05:40 -1.30952 130.77768 23922 ft 437 kts 51°
2026-05-06 05:40 -1.29058 130.80113 22912 ft 430 kts 51°
2026-05-06 05:40 -1.27221 130.82389 22342 ft 411 kts 51°
2026-05-06 05:40 -1.25465 130.84566 21789 ft 394 kts 51°
2026-05-06 05:41 -1.23774 130.86662 21252 ft 380 kts 51°
2026-05-06 05:41 -1.22140 130.88683 20741 ft 370 kts 51°
2026-05-06 05:41 -1.20529 130.90676 20240 ft 369 kts 51°
2026-05-06 05:41 -1.18917 130.92673 19698 ft 370 kts 51°
2026-05-06 05:42 -1.17197 130.94585 19166 ft 370 kts 42°
2026-05-06 05:42 -1.15146 130.96148 18625 ft 372 kts 31°
2026-05-06 05:42 -1.12826 130.97289 18115 ft 372 kts 20°
2026-05-06 05:42 -1.10342 130.98028 17547 ft 372 kts 15°
2026-05-06 05:43 -1.07853 130.98708 17038 ft 371 kts 15°
2026-05-06 05:43 -1.05363 130.99392 16512 ft 370 kts 15°
2026-05-06 05:43 -1.02884 131.00075 16000 ft 370 kts 15°
2026-05-06 05:43 -1.00407 131.00755 15469 ft 369 kts 15°
2026-05-06 05:44 -0.97932 131.01437 14965 ft 369 kts 15°
2026-05-06 05:44 -0.95463 131.02119 14447 ft 369 kts 15°
2026-05-06 05:44 -0.92988 131.02801 13920 ft 368 kts 15°
2026-05-06 05:44 -0.90551 131.03595 13369 ft 368 kts 25°
2026-05-06 05:45 -0.88468 131.05063 12814 ft 368 kts 45°
2026-05-06 05:45 -0.87006 131.07139 12255 ft 367 kts 65°
2026-05-06 05:45 -0.86340 131.09587 11622 ft 368 kts 85°
2026-05-06 05:45 -0.86396 131.12142 10986 ft 369 kts 93°
2026-05-06 05:46 -0.86542 131.14685 10523 ft 364 kts 93°
2026-05-06 05:46 -0.86684 131.17170 10363 ft 351 kts 93°
2026-05-06 05:46 -0.86816 131.19531 10245 ft 337 kts 92°
2026-05-06 05:46 -0.86939 131.21826 10128 ft 325 kts 93°
2026-05-06 05:47 -0.87057 131.24070 10010 ft 314 kts 92°
2026-05-06 05:47 -0.87168 131.26199 9772 ft 308 kts 92°
2026-05-06 05:47 -0.87283 131.28321 9470 ft 305 kts 93°
2026-05-06 05:47 -0.87397 131.30437 9059 ft 305 kts 93°
2026-05-06 05:48 -0.87511 131.32547 8655 ft 305 kts 93°
2026-05-06 05:48 -0.87624 131.34655 8310 ft 302 kts 93°
2026-05-06 05:48 -0.87737 131.36766 7811 ft 305 kts 93°
2026-05-06 05:48 -0.87850 131.38880 7381 ft 305 kts 92°
2026-05-06 05:49 -0.87964 131.41005 6952 ft 305 kts 93°
2026-05-06 05:49 -0.88077 131.43110 6530 ft 304 kts 93°
2026-05-06 05:49 -0.88191 131.45226 6101 ft 304 kts 93°
2026-05-06 05:49 -0.88305 131.47321 5666 ft 302 kts 93°
2026-05-06 05:50 -0.88419 131.49417 5245 ft 300 kts 93°
2026-05-06 05:50 -0.88531 131.51490 4816 ft 299 kts 93°
2026-05-06 05:50 -0.88356 131.53521 4570 ft 290 kts 72°
2026-05-06 05:50 -0.87676 131.55350 4566 ft 271 kts 71°
2026-05-06 05:51 -0.87133 131.57090 4573 ft 254 kts 73°
2026-05-06 05:51 -0.86675 131.58737 4573 ft 240 kts 74°
2026-05-06 05:51 -0.86238 131.60339 4575 ft 239 kts 74°
2026-05-06 05:51 -0.85798 131.61929 4578 ft 237 kts 74°
2026-05-06 05:52 -0.85187 131.63452 4577 ft 236 kts 59°
2026-05-06 05:52 -0.84147 131.64720 4578 ft 238 kts 39°
2026-05-06 05:52 -0.82755 131.65579 4578 ft 236 kts 20°
2026-05-06 05:52 -0.81176 131.65939 4576 ft 232 kts
2026-05-06 05:53 -0.79600 131.65790 4574 ft 229 kts 343°
2026-05-06 05:53 -0.78146 131.65173 4575 ft 226 kts 323°
2026-05-06 05:53 -0.76951 131.64146 4577 ft 224 kts 307°
2026-05-06 05:53 -0.76152 131.62849 4574 ft 222 kts 290°
2026-05-06 05:54 -0.75768 131.61342 4569 ft 222 kts 272°
2026-05-06 05:54 -0.75849 131.59829 4568 ft 221 kts 257°
2026-05-06 05:54 -0.76365 131.58406 4568 ft 217 kts 240°
2026-05-06 05:54 -0.77267 131.57203 4571 ft 219 kts 224°
2026-05-06 05:55 -0.78496 131.56308 4568 ft 220 kts 207°
2026-05-06 05:55 -0.79937 131.55746 4423 ft 225 kts 200°
2026-05-06 05:55 -0.81396 131.55238 4308 ft 221 kts 201°
2026-05-06 05:55 -0.82842 131.54736 4258 ft 221 kts 201°
2026-05-06 05:56 -0.84297 131.54231 4200 ft 221 kts 200°
2026-05-06 05:56 -0.85733 131.53734 4163 ft 213 kts 201°
2026-05-06 05:56 -0.87098 131.53239 3955 ft 209 kts 207°
2026-05-06 05:56 -0.88305 131.52354 3336 ft 224 kts 228°
2026-05-06 05:57 -0.89122 131.50983 2844 ft 233 kts 252°
2026-05-06 05:57 -0.89555 131.49457 2731 ft 225 kts 252°
2026-05-06 05:57 -0.89953 131.47977 2590 ft 214 kts 261°
2026-05-06 05:57 -0.90021 131.46537 2475 ft 199 kts 268°
2026-05-06 05:58 -0.90034 131.45238 2372 ft 176 kts 266°
2026-05-06 05:58 -0.90046 131.44098 2270 ft 151 kts 266°
2026-05-06 05:58 -0.90057 131.43103 2032 ft 139 kts 266°
2026-05-06 05:58 -0.90069 131.42165 1768 ft 131 kts 266°
2026-05-06 05:59 -0.90082 131.41254 1309 ft 132 kts 266°
2026-05-06 05:59 -0.90094 131.40320 1005 ft 131 kts 266°
2026-05-06 05:59 -0.90098 131.39398 898 ft 134 kts 270°
2026-05-06 05:59 -0.90048 131.38471 1058 ft 134 kts 270°
2026-05-06 06:00 -0.89987 131.37539 1115 ft 134 kts 271°
2026-05-06 06:00 -0.89925 131.36604 1133 ft 136 kts 273°
2026-05-06 06:00 -0.89862 131.35660 1142 ft 135 kts 270°
2026-05-06 06:00 -0.89799 131.34725 981 ft 135 kts 271°
2026-05-06 06:01 -0.89737 131.33779 797 ft 137 kts 271°
2026-05-06 06:01 -0.89675 131.32821 609 ft 138 kts 270°
2026-05-06 06:01 -0.89627 131.31862 477 ft 138 kts 271°
2026-05-06 06:01 -0.89554 131.30894 259 ft 138 kts 271°
2026-05-06 06:02 -0.89482 131.29945 48 ft 135 kts 273°
2026-05-06 06:02 -0.89428 131.29102 14 ft 99 kts 274°
2026-05-06 06:02 -0.89395 131.28560 15 ft 68 kts 274°
2026-05-06 06:02 -0.89364 131.28130 19 ft 56 kts 274°
2026-05-06 06:03 -0.89326 131.27864 20 ft 19 kts 307°
2026-05-06 06:03 -0.89343 131.27816 21 ft 2 kts 144°
2026-05-06 06:03 -0.89343 131.27841 20 ft 6 kts 97°
2026-05-06 06:03 -0.89347 131.27901 19 ft 12 kts 93°
2026-05-06 06:04 -0.89354 131.28005 17 ft 18 kts 94°
2026-05-06 06:04 -0.89363 131.28146 19 ft 22 kts 94°
2026-05-06 06:04 -0.89374 131.28313 19 ft 27 kts 94°
2026-05-06 06:04 -0.89386 131.28490 19 ft 22 kts 94°
2026-05-06 06:05 -0.89393 131.28595 15 ft 23 kts 93°
2026-05-06 06:05 -0.89403 131.28753 16 ft 22 kts 94°
2026-05-06 06:05 -0.89385 131.28911 14 ft 10 kts 13°
2026-05-06 06:05 -0.89334 131.28911 13 ft 10 kts
2026-05-06 06:06 -0.89254 131.28930 14 ft 13 kts 54°
2026-05-06 06:06 -0.89241 131.28980 13 ft 9 kts 89°
2026-05-06 06:06 -0.89241 131.29009 12 ft 0 kts 86°
2026-05-06 06:06 -0.89237 131.29011 12 ft 1 kts 41°
2026-05-06 06:07 -0.89224 131.29005 11 ft 5 kts 344°
2026-05-06 06:07 -0.89168 131.29011 14 ft 0 kts